Flag for U.S.A. Weather past 2 weeks in Garland, Texas, U.S.A.

Now
90 °F

Scattered clouds.


Feels Like: 95 °F
Forecast: 78 / 89 °F
Wind: 13 mph from South

Location: Mesquite Metro Airport

Current Time: Jul 7, 2015 at 5:04:49 PM

Latest Report: Jul 7, 2015 at 3:50 PM


Visibility: 10 mi

Pressure: 29.94 "Hg

Humidity: 52%

Dew point: 70 °F

Location of GarlandLocation

Historic Weather in Garland — Graph

°F

Garland temperature yesterday

Maximum temperature yesterday: 91 °F (at 5:50 PM)
Minimum temperature yesterday: 77 °F (at 6:50 AM)
Average temperature yesterday: 82 °F

Past Weeks' High & Low Weather Summary

 TemperatureHumidityPressure
High93 °F (Jun 22, 3:50 PM)100% (Jun 23, 6:50 AM)30.19 "Hg (Jun 23, 6:50 AM)
Low69 °F (Jun 28, 4:55 AM)24% (Jun 28, 5:50 PM)29.87 "Hg (Jul 6, 7:50 PM)
Average80 °F75%30.01 "Hg
* Reported Jun 22 3:50 PM — Jul 7 2:50 PM, Garland, Weather by CustomWeather, © 2015

Note: Actual official high and low records may vary slightly from our data, if they occured in-between our weather recording intervals... More about our weather records

Advertising

Garland weather history for previous 24 hours

 ConditionsComfort  
Time TempWeatherWind HumidityBarometerVisibility
2:50 PM
Tue, Jul 7
90 °FScattered clouds.13 mph52%29.96 "Hg10 mi
1:50 PM90 °FScattered clouds.20 mph52%29.97 "Hg10 mi
12:50 PM88 °FScattered clouds.17 mph59%29.98 "Hg10 mi
11:50 AM88 °FBroken clouds.16 mph59%29.99 "Hg10 mi
10:50 AM82 °FPartly sunny.17 mph74%29.99 "Hg7 mi
9:50 AM82 °FMostly cloudy.12 mph74%30.00 "Hg7 mi
8:50 AM81 °FOvercast.13 mph84%29.99 "Hg7 mi
7:50 AM79 °FScattered clouds.12 mph89%29.98 "Hg7 mi
6:50 AM77 °FClear.12 mph89%29.98 "Hg7 mi
6:15 AM77 °FPassing clouds.13 mph89%29.97 "Hg7 mi
5:55 AM77 °FPartly cloudy.14 mph89%29.97 "Hg10 mi
5:35 AM78 °FPassing clouds.16 mph88%29.97 "Hg7 mi
5:15 AM78 °FPassing clouds.14 mph87%29.96 "Hg7 mi
4:55 AM78 °FPassing clouds.16 mph87%29.96 "Hg10 mi
4:35 AM78 °FPassing clouds.15 mph86%29.95 "Hg10 mi
4:15 AM78 °FPassing clouds.16 mph86%29.95 "Hg10 mi
3:55 AM78 °FPassing clouds.16 mph84%29.96 "Hg10 mi
3:15 AM78 °FPassing clouds.14 mph82%29.96 "Hg10 mi
2:55 AM79 °FPassing clouds.13 mph81%29.96 "Hg10 mi
2:35 AM79 °FPassing clouds.14 mph80%29.97 "Hg10 mi
2:15 AM79 °FClear.13 mph79%29.97 "Hg10 mi
1:55 AM79 °FClear.12 mph78%29.96 "Hg10 mi
1:35 AM79 °FClear.13 mph77%29.97 "Hg10 mi
1:15 AM80 °FClear.12 mph76%29.96 "Hg10 mi
12:55 AM79 °FClear.10 mph77%29.98 "Hg10 mi
12:35 AM80 °FClear.10 mph74%29.98 "Hg10 mi
12:15 AM80 °FClear.9 mph72%29.99 "Hg10 mi
11:55 PM
Mon, Jul 6
81 °FClear.8 mph70%29.99 "Hg10 mi
11:15 PM81 °FClear.8 mph68%29.99 "Hg10 mi
10:55 PM82 °FClear.9 mph67%29.98 "Hg10 mi
10:15 PM82 °FPassing clouds.10 mph67%29.96 "Hg10 mi
9:55 PM82 °FPassing clouds.7 mph65%29.96 "Hg10 mi
9:35 PM82 °FScattered clouds.5 mph61%29.97 "Hg10 mi
9:15 PM82 °FSunny.5 mph59%29.95 "Hg10 mi
8:55 PM83 °FSunny.7 mph58%29.94 "Hg10 mi
8:15 PM86 °FSunny.14 mph50%29.89 "Hg10 mi
7:50 PM88 °FSunny.16 mph49%29.87 "Hg7 mi
6:50 PM90 °FSunny.17 mph49%29.89 "Hg7 mi
5:50 PM91 °FScattered clouds.20 mph44%29.93 "Hg7 mi
Weather by CustomWeather, © 2015

See weather overviewHow to use our weather pages